| time (UTC) | temp F | wind direction | speed MPH | gust MPH | rain 1hr in | rain 24hr in | rain mn in | humidity % | barometer mb |
| 20260904223015 | 75 | 45 | 3.0 | 10.0 | 0.00 | 0.00 | 0.00 | 26 | 1024.2 |
| 20260904222015 | 75 | 0 | 8.0 | 12.0 | 0.00 | 0.00 | 0.00 | 26 | 1024.2 |
| 20260904221015 | 75 | 23 | 6.0 | 12.0 | 0.00 | 0.00 | 0.00 | 26 | 1024.0 |
| 20260904220040 | 75 | 338 | 7.0 | 14.0 | 0.00 | 0.00 | 0.00 | 26 | 1024.1 |
| 20260904215015 | 75 | 45 | 3.0 | 10.0 | 0.00 | 0.00 | 0.00 | 26 | 1024.1 |
| 20260904214020 | 75 | 0 | 6.0 | 11.0 | 0.00 | 0.00 | 0.00 | 26 | 1024.0 |
| 20260904213035 | 74 | 23 | 6.0 | 11.0 | 0.00 | 0.00 | 0.00 | 26 | 1023.8 |
| 20260904212021 | 75 | 45 | 5.0 | 12.0 | 0.00 | 0.00 | 0.00 | 25 | 1024.1 |
| 20260904211020 | 75 | 135 | 2.0 | 7.0 | 0.00 | 0.00 | 0.00 | 25 | 1024.0 |
| 20260904210020 | 76 | 113 | 5.0 | 12.0 | 0.00 | 0.00 | 0.00 | 25 | 1024.2 |
| 20260904205015 | 77 | 90 | 5.0 | 11.0 | 0.00 | 0.00 | 0.00 | 24 | 1024.5 |
| 20260904204015 | 77 | 113 | 4.0 | 12.0 | 0.00 | 0.00 | 0.00 | 24 | 1024.4 |
| 20260904203017 | 78 | 158 | 4.0 | 14.0 | 0.00 | 0.00 | 0.00 | 24 | 1024.7 |
| 20260904202022 | 76 | 135 | 6.0 | 19.0 | 0.00 | 0.00 | 0.00 | 25 | 1024.6 |
| 20260904201023 | 76 | 113 | 8.0 | 16.0 | 0.00 | 0.00 | 0.00 | 25 | 1024.6 |
| 20260904200023 | 76 | 135 | 9.0 | 15.0 | 0.00 | 0.00 | 0.00 | 25 | 1024.8 |
| 20260904195037 | 76 | 158 | 8.0 | 19.0 | 0.00 | 0.00 | 0.00 | 25 | 1024.7 |
| 20260904194022 | 76 | 135 | 4.0 | 14.0 | 0.00 | 0.00 | 0.00 | 25 | 1024.7 |
| 20260904193022 | 76 | 23 | 4.0 | 10.0 | 0.00 | 0.00 | 0.00 | 26 | 1024.6 |
| 20260904192017 | 75 | 45 | 3.0 | 9.0 | 0.00 | 0.00 | 0.00 | 27 | 1024.6 |
| 20260904191017 | 76 | 90 | 3.0 | 8.0 | 0.00 | 0.00 | 0.00 | 24 | 1024.7 |
| 20260904190017 | 75 | 158 | 1.0 | 2.0 | 0.00 | 0.00 | 0.00 | 25 | 1024.7 |
| 20260904185042 | 74 | 68 | 3.0 | 8.0 | 0.00 | 0.00 | 0.00 | 26 | 1024.6 |
| 20260904184042 | 74 | 248 | 2.0 | 7.0 | 0.00 | 0.00 | 0.00 | 26 | 1024.8 |
| 20260904183042 | 76 | 180 | 5.0 | 10.0 | 0.00 | 0.00 | 0.00 | 25 | 1025.0 |
| 20260904182016 | 75 | 270 | 2.0 | 5.0 | 0.00 | 0.00 | 0.00 | 25 | 1025.2 |
| 20260904181017 | 75 | 203 | 4.0 | 9.0 | 0.00 | 0.00 | 0.00 | 25 | 1025.2 |
| 20260904180022 | 74 | 270 | 5.0 | 11.0 | 0.00 | 0.00 | 0.00 | 26 | 1025.1 |
| 20260904175022 | 75 | 270 | 6.0 | 15.0 | 0.00 | 0.00 | 0.00 | 26 | 1025.2 |
| 20260904174042 | 74 | 293 | 5.0 | 13.0 | 0.00 | 0.00 | 0.00 | 28 | 1025.2 |
| 20260904173022 | 73 | 248 | 6.0 | 16.0 | 0.00 | 0.00 | 0.00 | 28 | 1025.3 |
| 20260904172022 | 73 | 203 | 7.0 | 14.0 | 0.00 | 0.00 | 0.00 | 27 | 1025.1 |
| 20260904171042 | 73 | 180 | 7.0 | 15.0 | 0.00 | 0.00 | 0.00 | 28 | 1025.2 |
| 20260904170022 | 72 | 203 | 7.0 | 16.0 | 0.00 | 0.00 | 0.00 | 29 | 1025.0 |
| 20260904165016 | 72 | 180 | 8.0 | 13.0 | 0.00 | 0.00 | 0.00 | 28 | 1025.0 |
| 20260904164022 | 72 | 248 | 5.0 | 12.0 | 0.00 | 0.00 | 0.00 | 28 | 1025.0 |
| 20260904163022 | 72 | 225 | 7.0 | 14.0 | 0.00 | 0.00 | 0.00 | 29 | 1025.1 |
| 20260904162042 | 70 | 270 | 9.0 | 17.0 | 0.00 | 0.00 | 0.00 | 31 | 1024.9 |
| 20260904161022 | 71 | 248 | 6.0 | 15.0 | 0.00 | 0.00 | 0.00 | 31 | 1024.8 |
| 20260904160022 | 70 | 270 | 7.0 | 14.0 | 0.00 | 0.00 | 0.00 | 30 | 1024.8 |
| 20260904155022 | 70 | 225 | 8.0 | 17.0 | 0.00 | 0.00 | 0.00 | 32 | 1025.0 |
| 20260904154022 | 69 | 270 | 11.0 | 21.0 | 0.00 | 0.00 | 0.00 | 31 | 1024.7 |
| 20260904153022 | 70 | 270 | 8.0 | 16.0 | 0.00 | 0.00 | 0.00 | 30 | 1024.8 |
| 20260904152042 | 69 | 203 | 6.0 | 15.0 | 0.00 | 0.00 | 0.00 | 33 | 1024.8 |
| 20260904151022 | 69 | 203 | 6.0 | 12.0 | 0.00 | 0.00 | 0.00 | 33 | 1024.8 |
| 20260904150016 | 68 | 225 | 7.0 | 17.0 | 0.00 | 0.00 | 0.00 | 34 | 1024.5 |
| 20260904145022 | 68 | 225 | 5.0 | 12.0 | 0.00 | 0.00 | 0.00 | 34 | 1024.8 |
| 20260904144017 | 68 | 248 | 5.0 | 10.0 | 0.00 | 0.00 | 0.00 | 34 | 1024.7 |
| 20260904143016 | 67 | 203 | 5.0 | 11.0 | 0.00 | 0.00 | 0.00 | 34 | 1024.7 |
| 20260904142022 | 66 | 203 | 4.0 | 10.0 | 0.00 | 0.00 | 0.00 | 34 | 1024.7 |
| 20260904141017 | 65 | 203 | 4.0 | 9.0 | 0.00 | 0.00 | 0.00 | 35 | 1024.6 |
| 20260904140022 | 64 | 203 | 3.0 | 9.0 | 0.00 | 0.00 | 0.00 | 36 | 1024.4 |
| 20260904135016 | 63 | 203 | 4.0 | 11.0 | 0.00 | 0.00 | 0.00 | 36 | 1024.3 |
| 20260904134020 | 61 | 203 | 4.0 | 8.0 | 0.00 | 0.00 | 0.00 | 37 | 1024.0 |
| 20260904133016 | 60 | 203 | 2.0 | 7.0 | 0.00 | 0.00 | 0.00 | 38 | 1023.8 |
| 20260904132042 | 60 | 203 | 4.0 | 7.0 | 0.00 | 0.00 | 0.00 | 37 | 1024.0 |
| 20260904131022 | 60 | 203 | 5.0 | 9.0 | 0.00 | 0.00 | 0.00 | 37 | 1023.8 |
| 20260904130022 | 60 | 203 | 4.0 | 7.0 | 0.00 | 0.00 | 0.00 | 37 | 1023.8 |
| 20260904125022 | 60 | 203 | 5.0 | 10.0 | 0.00 | 0.00 | 0.00 | 37 | 1023.9 |
| 20260904124022 | 60 | 225 | 5.0 | 11.0 | 0.00 | 0.00 | 0.00 | 37 | 1023.6 |
| 20260904123017 | 60 | 203 | 7.0 | 11.0 | 0.00 | 0.00 | 0.00 | 36 | 1023.6 |
| 20260904122016 | 62 | 225 | 5.0 | 11.0 | 0.00 | 0.00 | 0.00 | 36 | 1023.7 |
| 20260904121022 | 61 | 225 | 6.0 | 12.0 | 0.00 | 0.00 | 0.00 | 37 | 1023.6 |
| 20260904120022 | 60 | 203 | 5.0 | 7.0 | 0.00 | 0.00 | 0.00 | 37 | 1023.4 |
| 20260904115022 | 60 | 225 | 5.0 | 8.0 | 0.00 | 0.00 | 0.00 | 37 | 1023.5 |
| 20260904114022 | 60 | 225 | 5.0 | 10.0 | 0.00 | 0.00 | 0.00 | 36 | 1023.3 |
| 20260904113016 | 60 | 225 | 4.0 | 12.0 | 0.00 | 0.00 | 0.00 | 36 | 1023.3 |
| 20260904112016 | 60 | 203 | 5.0 | 9.0 | 0.00 | 0.00 | 0.00 | 36 | 1023.3 |
| 20260904111022 | 60 | 225 | 5.0 | 8.0 | 0.00 | 0.00 | 0.00 | 37 | 1023.2 |
| 20260904110017 | 60 | 203 | 5.0 | 8.0 | 0.00 | 0.00 | 0.00 | 37 | 1023.1 |
| 20260904105042 | 60 | 203 | 5.0 | 9.0 | 0.00 | 0.00 | 0.00 | 36 | 1023.2 |
| 20260904104021 | 60 | 225 | 5.0 | 10.0 | 0.00 | 0.00 | 0.00 | 36 | 1023.2 |
| 20260904103022 | 60 | 225 | 5.0 | 13.0 | 0.00 | 0.00 | 0.00 | 35 | 1023.1 |
| 20260904102016 | 60 | 225 | 5.0 | 10.0 | 0.00 | 0.00 | 0.00 | 36 | 1023.1 |
| 20260904101036 | 59 | 225 | 5.0 | 10.0 | 0.00 | 0.00 | 0.00 | 37 | 1023.2 |
| 20260904100022 | 59 | 225 | 4.0 | 9.0 | 0.00 | 0.00 | 0.00 | 37 | 1023.2 |
| 20260904095041 | 60 | 225 | 5.0 | 8.0 | 0.00 | 0.00 | 0.00 | 37 | 1023.0 |
| 20260904094022 | 60 | 225 | 5.0 | 9.0 | 0.00 | 0.00 | 0.00 | 36 | 1023.0 |
| 20260904093022 | 60 | 225 | 6.0 | 11.0 | 0.00 | 0.00 | 0.00 | 36 | 1023.0 |
| 20260904092016 | 59 | 225 | 6.0 | 10.0 | 0.00 | 0.00 | 0.00 | 37 | 1022.9 |
| 20260904091016 | 59 | 203 | 5.0 | 8.0 | 0.00 | 0.00 | 0.00 | 37 | 1022.9 |
| 20260904090042 | 59 | 225 | 5.0 | 7.0 | 0.00 | 0.00 | 0.00 | 36 | 1023.0 |
| 20260904085021 | 60 | 225 | 4.0 | 7.0 | 0.00 | 0.00 | 0.00 | 36 | 1023.0 |
| 20260904084021 | 60 | 225 | 5.0 | 10.0 | 0.00 | 0.00 | 0.00 | 35 | 1023.1 |
| 20260904083021 | 60 | 225 | 5.0 | 12.0 | 0.00 | 0.00 | 0.00 | 36 | 1023.1 |
| 20260904082101 | 60 | 225 | 6.0 | 12.0 | 0.00 | 0.00 | 0.00 | 36 | 1023.1 |
| 20260904081016 | 60 | 225 | 5.0 | 9.0 | 0.00 | 0.00 | 0.00 | 36 | 1022.9 |
| 20260904080021 | 60 | 225 | 5.0 | 8.0 | 0.00 | 0.00 | 0.00 | 36 | 1022.9 |
| 20260904075021 | 59 | 225 | 6.0 | 11.0 | 0.00 | 0.00 | 0.00 | 37 | 1022.9 |
| 20260904074022 | 59 | 225 | 5.0 | 11.0 | 0.00 | 0.00 | 0.00 | 39 | 1022.9 |
| 20260904073021 | 59 | 248 | 5.0 | 12.0 | 0.00 | 0.00 | 0.00 | 40 | 1022.9 |
| 20260904072021 | 59 | 225 | 6.0 | 10.0 | 0.00 | 0.00 | 0.00 | 40 | 1023.1 |
| 20260904071021 | 59 | 225 | 4.0 | 9.0 | 0.00 | 0.00 | 0.00 | 42 | 1023.2 |
| 20260904070016 | 59 | 225 | 7.0 | 12.0 | 0.00 | 0.00 | 0.00 | 42 | 1023.2 |
| 20260904065021 | 59 | 225 | 7.0 | 12.0 | 0.00 | 0.00 | 0.00 | 43 | 1023.2 |
| 20260904064021 | 59 | 225 | 9.0 | 15.0 | 0.00 | 0.00 | 0.00 | 43 | 1023.2 |
| 20260904063021 | 59 | 225 | 9.0 | 14.0 | 0.00 | 0.00 | 0.00 | 44 | 1023.3 |
| 20260904062021 | 60 | 225 | 7.0 | 13.0 | 0.00 | 0.00 | 0.00 | 43 | 1023.2 |
| 20260904061016 | 59 | 225 | 8.0 | 13.0 | 0.00 | 0.00 | 0.00 | 43 | 1023.3 |
| 20260904060021 | 59 | 225 | 8.0 | 12.0 | 0.00 | 0.00 | 0.00 | 44 | 1023.3 |
| 20260904055021 | 59 | 225 | 7.0 | 10.0 | 0.00 | 0.00 | 0.00 | 44 | 1023.0 |
| 20260904054021 | 59 | 225 | 7.0 | 11.0 | 0.00 | 0.00 | 0.00 | 44 | 1023.0 |
| 20260904053021 | 58 | 203 | 6.0 | 10.0 | 0.00 | 0.00 | 0.00 | 46 | 1022.7 |
| 20260904052021 | 59 | 203 | 6.0 | 9.0 | 0.00 | 0.00 | 0.00 | 44 | 1022.9 |
| 20260904051021 | 60 | 225 | 8.0 | 16.0 | 0.00 | 0.00 | 0.00 | 44 | 1023.0 |
| 20260904050021 | 59 | 225 | 6.0 | 10.0 | 0.00 | 0.00 | 0.00 | 45 | 1023.1 |
| 20260904045021 | 58 | 203 | 7.0 | 9.0 | 0.00 | 0.00 | 0.00 | 47 | 1022.7 |
| 20260904044021 | 59 | 203 | 6.0 | 8.0 | 0.00 | 0.00 | 0.00 | 45 | 1023.0 |
| 20260904043041 | 59 | 225 | 5.0 | 8.0 | 0.00 | 0.00 | 0.00 | 46 | 1023.0 |
| 20260904042021 | 60 | 203 | 6.0 | 8.0 | 0.00 | 0.00 | 0.00 | 45 | 1022.9 |
| 20260904041021 | 61 | 225 | 5.0 | 9.0 | 0.00 | 0.00 | 0.00 | 43 | 1023.1 |
| 20260904040021 | 60 | 225 | 4.0 | 7.0 | 0.00 | 0.00 | 0.00 | 44 | 1023.3 |
| 20260904035021 | 61 | 203 | 6.0 | 10.0 | 0.00 | 0.00 | 0.00 | 43 | 1023.3 |
| 20260904034021 | 61 | 225 | 6.0 | 8.0 | 0.00 | 0.00 | 0.00 | 44 | 1023.3 |
| 20260904033021 | 62 | 203 | 6.0 | 8.0 | 0.00 | 0.00 | 0.00 | 42 | 1023.3 |
| 20260904032015 | 63 | 225 | 3.0 | 5.0 | 0.00 | 0.00 | 0.00 | 40 | 1023.2 |
| 20260904031021 | 64 | 248 | 3.0 | 6.0 | 0.00 | 0.00 | 0.00 | 38 | 1023.4 |
| 20260904030021 | 64 | 270 | 5.0 | 8.0 | 0.00 | 0.00 | 0.00 | 37 | 1023.4 |
| 20260904025015 | 66 | 293 | 6.0 | 7.0 | 0.00 | 0.00 | 0.00 | 36 | 1023.4 |
| 20260904024021 | 67 | 315 | 4.0 | 5.0 | 0.00 | 0.00 | 0.00 | 35 | 1023.5 |
| 20260904023016 | 67 | 315 | 4.0 | 5.0 | 0.00 | 0.00 | 0.00 | 34 | 1023.3 |
| 20260904022021 | 67 | 0 | 3.0 | 5.0 | 0.00 | 0.00 | 0.00 | 34 | 1023.1 |
| 20260904021015 | 68 | 23 | 4.0 | 8.0 | 0.00 | 0.00 | 0.00 | 32 | 1023.1 |
| 20260904020021 | 69 | 45 | 6.0 | 15.0 | 0.00 | 0.00 | 0.00 | 31 | 1023.2 |
| 20260904015021 | 69 | 45 | 5.0 | 8.0 | 0.00 | 0.00 | 0.00 | 31 | 1022.9 |
| 20260904014021 | 69 | 45 | 3.0 | 6.0 | 0.00 | 0.00 | 0.00 | 30 | 1022.9 |
| 20260904013015 | 70 | 68 | 3.0 | 5.0 | 0.00 | 0.00 | 0.00 | 30 | 1022.9 |
| 20260904012021 | 70 | 45 | 3.0 | 8.0 | 0.00 | 0.00 | 0.00 | 30 | 1022.7 |
| 20260904011021 | 71 | 68 | 4.0 | 7.0 | 0.00 | 0.00 | 0.00 | 29 | 1023.0 |
| 20260904010021 | 72 | 68 | 5.0 | 11.0 | 0.00 | 0.00 | 0.00 | 29 | 1022.9 |
| 20260904005021 | 72 | 68 | 6.0 | 11.0 | 0.00 | 0.00 | 0.00 | 29 | 1022.7 |
| 20260904004015 | 72 | 68 | 4.0 | 12.0 | 0.00 | 0.00 | 0.00 | 28 | 1022.6 |
| 20260904003021 | 73 | 68 | 6.0 | 11.0 | 0.00 | 0.00 | 0.00 | 27 | 1022.9 |
| 20260904002020 | 74 | 68 | 3.0 | 9.0 | 0.00 | 0.00 | 0.00 | 27 | 1022.8 |
| 20260904001021 | 74 | 113 | 4.0 | 11.0 | 0.00 | 0.00 | 0.00 | 26 | 1022.8 |
| 20260904000021 | 74 | 135 | 4.0 | 7.0 | 0.00 | 0.00 | 0.00 | 27 | 1022.8 |
| 20260903235035 | 74 | 113 | 3.0 | 6.0 | 0.00 | 0.00 | 0.00 | 27 | 1022.9 |
| 20260903234021 | 74 | 45 | 4.0 | 8.0 | 0.00 | 0.00 | 0.00 | 27 | 1022.9 |
| 20260903233021 | 74 | 45 | 6.0 | 12.0 | 0.00 | 0.00 | 0.00 | 27 | 1022.9 |
| 20260903232015 | 75 | 45 | 4.0 | 10.0 | 0.00 | 0.00 | 0.00 | 28 | 1023.0 |
| 20260903231020 | 74 | 68 | 6.0 | 13.0 | 0.00 | 0.00 | 0.00 | 27 | 1022.9 |
| 20260903230021 | 74 | 45 | 5.0 | 12.0 | 0.00 | 0.01 | 0.00 | 28 | 1022.9 |
| 20260903225035 | 74 | 68 | 7.0 | 13.0 | 0.00 | 0.01 | 0.00 | 28 | 1022.8 |
| 20260903224041 | 75 | 45 | 2.0 | 7.0 | 0.00 | 0.01 | 0.00 | 27 | 1023.1 |